This demonstration page uses our WeatherBlox Daily Observations layout. Learn more.

Left ArrowRight Arrow

40.92945, -100.16068

Hourly Observations for June 21, 2020

Temp ( °F °C ) Dew Point ( °F °C ) Humidity (%) Winds ( mph kmh ) Pressure ( in mb ) Visibility ( mi km ) Precip ( " mm )
12:15 am 00:15 Clear 68 20.2 64 17.5 85 85 S 6 9 29.82 1010 10 16.0934 0 0
12:35 am 00:35 Clear 68 19.8 63 17.2 85 85 SSE 3 6 29.82 1010 10 16.0934 0 0
12:55 am 00:55 Clear 65 18.6 62 16.9 90 90 NE 3 6 29.83 1010 10 16.0934 0 0
1:15 am 01:15 Clear 65 18.1 62 16.6 91 91 Calm 29.83 1010 10 16.0934 0 0
1:35 am 01:35 Clear 64 17.7 61 16.2 91 91 Calm 29.83 1010 10 16.0934 0 0
1:55 am 01:55 Clear 65 18.1 61 16.3 89 89 Calm 29.82 1010 10 16.0934 0 0
2:15 am 02:15 Clear 64 17.5 61 16 91 91 Calm 29.83 1010 10 16.0934 0 0
2:35 am 02:35 Clear 65 18.3 62 16.4 89 89 ESE 5 7 29.82 1010 10 16.0934 0 0
2:55 am 02:55 Clear 65 18.4 62 16.7 90 90 SSE 3 6 29.82 1010 10 16.0934 0 0
3:15 am 03:15 Clear 65 18.6 63 17 90 90 Calm 29.81 1010 10 16.0934 0 0
3:35 am 03:35 Clear 64 17.8 62 16.6 93 93 Calm 29.81 1010 10 16.0934 0 0
3:55 am 03:55 Clear 64 17.5 62 16.5 94 94 S 3 6 29.81 1010 10 16.0934 0 0
4:15 am 04:15 Clear 62 16.9 61 16 94 94 Calm 29.82 1010 10 16.0934 0 0
4:35 am 04:35 Clear 62 16.5 60 15.8 96 96 Calm 29.81 1010 10 16.0934 0 0
4:55 am 04:55 Clear 60 15.8 59 15 95 95 Calm 29.82 1010 10 16.0934 0 0
5:15 am 05:15 Clear 60 15.6 59 14.8 95 95 ESE 5 7 29.81 1010 10 16.0934 0 0
5:35 am 05:35 Clear 61 16 59 15.2 95 95 SE 6 9 29.81 1009 10 16.0934 0 0
5:55 am 05:55 Clear 62 16.5 60 15.5 94 94 SE 5 7 29.81 1010 10 16.0934 0 0
6:15 am 06:15 Sunny 62 16.8 60 15.6 93 93 Calm 29.8 1009 10 16.0934 0 0
6:35 am 06:35 Sunny 64 17.5 61 16.1 92 92 S 5 7 29.79 1009 10 16.0934 0 0
6:55 am 06:55 Sunny 65 18.2 62 16.5 90 90 S 5 7 29.79 1009 10 16.0934 0 0
7:15 am 07:15 Sunny 66 19 62 16.6 86 86 Calm 29.78 1009 10 16.0934 0 0
7:35 am 07:35 Sunny 67 19.7 62 16.5 82 82 SSE 5 7 29.78 1008 10 16.0934 0 0
7:55 am 07:55 Sunny 67 19.6 62 16.6 83 83 S 12 19 29.77 1008 10 16.0934 0 0
8:15 am 08:15 Sunny 67 19.5 62 16.9 85 85 S 7 11 29.79 1009 10 16.0934 0 0
8:35 am 08:35 Sunny 68 20.1 63 17.1 83 83 S 9 15 29.77 1008 10 16.0934 0 0
8:55 am 08:55 Sunny 69 20.5 63 17.2 81 81 S 10 17 29.76 1008 10 16.0934 0 0
9:15 am 09:15 Sunny 70 21.1 63 17.1 78 78 S 13 20 29.75 1008 10 16.0934 0 0
9:35 am 09:35 Sunny 72 22.3 64 17.5 74 74 S 13 20 29.74 1007 10 16.0934 0 0
9:55 am 09:55 Partly Cloudy 74 23.1 64 17.8 72 72 S 12 19 29.74 1007 10 16.0934 0 0
10:15 am 10:15 Partly Cloudy 72 22.4 64 18 76 76 S 9 15 29.74 1007 10 16.0934 0 0
10:35 am 10:35 Mostly Cloudy 73 22.6 64 18 75 75 SSW 9 15 29.74 1007 10 16.0934 0 0
10:55 am 10:55 Partly Cloudy 74 23.5 65 18.6 74 74 SSW 10 17 29.73 1007 10 16.0934 0 0
11:15 am 11:15 Partly Cloudy 73 22.9 65 18.2 75 75 SW 9 15 29.74 1007 10 16.0934 0 0
11:35 am 11:35 Sunny 74 23.1 65 18.2 74 74 SSW 10 17 29.74 1007 10 16.0934 0 0
11:55 am 11:55 Sunny 73 22.8 64 17.8 74 74 SSW 7 11 29.74 1007 10 16.0934 0 0
12:15 pm 12:15 Sunny 73 22.8 65 18.3 76 76 S 7 11 29.75 1007 10 16.0934 0 0
12:35 pm 12:35 Sunny 73 23 65 18.4 75 75 SSE 7 11 29.75 1007 10 16.0934 0 0
12:55 pm 12:55 Sunny 74 23.6 66 19.1 76 76 SSE 8 13 29.74 1007 10 16.0934 0 0
1:15 pm 13:15 Sunny 77 25.1 67 19.4 71 71 SSE 13 20 29.72 1006 10 16.0934 0 0
1:35 pm 13:35 Sunny 77 25.1 66 19.1 69 69 S 12 19 29.72 1006 10 16.0934 0 0
1:55 pm 13:55 Sunny 80 26.8 66 19.1 63 63 S 10 17 29.71 1006 10 16.0934 0 0
2:15 pm 14:15 Sunny 83 28.1 65 18.4 56 56 S 10 17 29.7 1006 10 16.0934 0 0
2:35 pm 14:35 Sunny 85 29.2 67 19.2 55 55 S 8 13 29.68 1005 10 16.0934 0 0
2:55 pm 14:55 Sunny 85 29.5 67 19.5 55 55 SSE 10 17 29.66 1005 10 16.0934 0 0
3:15 pm 15:15 Partly Cloudy 85 29.4 67 19.5 55 55 S 9 15 29.65 1004 10 16.0934 0 0
3:35 pm 15:35 Partly Cloudy 86 29.9 67 19.5 54 54 SSE 14 22 29.63 1003 10 16.0934 0 0
3:55 pm 15:55 Partly Cloudy 87 30.3 65 18.4 49 49 SSW 9 15 29.63 1003 10 16.0934 0 0
4:15 pm 16:15 Partly Cloudy 87 30.4 66 18.7 50 50 SW 10 17 29.63 1003 10 16.0934 0 0
4:35 pm 16:35 Partly Cloudy 86 30 66 19 52 52 S 7 11 29.62 1003 10 16.0934 0 0
4:55 pm 16:55 Mostly Cloudy 86 30 66 18.8 51 51 S 8 13 29.6 1002 10 16.0934 0 0
5:15 pm 17:15 Mostly Cloudy 84 28.8 67 19.7 58 58 SSE 14 22 29.64 1004 10 16.0934 0 0
5:35 pm 17:35 Mostly Cloudy 81 27.3 67 19.4 62 62 SSE 13 20 29.65 1004 10 16.0934 0 0
5:55 pm 17:55 Mostly Cloudy 80 26.5 67 19.2 64 64 S 12 19 29.65 1004 10 16.0934 0 0
6:15 pm 18:15 Mostly Cloudy 75 23.7 63 17.2 67 67 S 15 24 29.68 1005 10 16.0934 0 0
6:35 pm 18:35 Cloudy 72 22.4 64 17.5 74 74 S 9 15 29.69 1005 10 16.0934 0 0
6:55 pm 18:55 Cloudy with Light Rain 72 22.1 64 17.8 77 77 S 5 7 29.7 1006 10 16.0934 0 0
7:15 pm 19:15 Partly Cloudy 72 22.3 63 17 72 72 SSW 8 13 29.71 1006 10 16.0934 0 0
7:35 pm 19:35 Sunny 72 22 62 16.9 73 73 SW 3 6 29.72 1006 10 16.0934 0 0
7:55 pm 19:55 Sunny 71 21.8 64 17.5 77 77 SSW 9 15 29.74 1007 10 16.0934 0 0
8:15 pm 20:15 Sunny 70 21.2 64 17.9 82 82 S 10 17 29.75 1008 10 16.0934 0 0
8:35 pm 20:35 Sunny 69 20.8 64 17.9 84 84 SSW 7 11 29.77 1008 10 16.0934 0 0
8:55 pm 20:55 Sunny 69 20.7 62 16.9 79 79 SSW 12 19 29.77 1008 10 16.0934 0 0
9:15 pm 21:15 Partly Cloudy 68 20.2 63 17 82 82 SW 10 17 29.78 1008 10 16.0934 0 0
9:35 pm 21:35 Partly Cloudy 68 19.9 63 17 83 83 SW 12 19 29.77 1008 10 16.0934 0 0
9:55 pm 21:55 Clear with Nearby Thunderstorms 68 20 62 16.9 82 82 SW 10 17 29.78 1009 10 16.0934 0 0
10:15 pm 22:15 Partly Cloudy 68 20 61 16.1 78 78 W 6 9 29.8 1009 10 16.0934 0 0
10:35 pm 22:35 Mostly Cloudy with Nearby Thunderstorms 67 19.6 62 16.9 85 85 NW 8 13 29.84 1010 10 16.0934 0 0
10:55 pm 22:55 Cloudy with Light Rain 67 19.6 63 17 85 85 WSW 6 9 29.83 1010 10 16.0934 0 0
11:15 pm 23:15 Partly Cloudy with Light Rain 66 19.1 62 16.7 86 86 WSW 3 6 29.81 1009 10 16.0934 0 0
11:35 pm 23:35 Clear 66 18.7 61 16.2 85 85 W 6 9 29.82 1010 10 16.0934 0 0
11:55 pm 23:55 Clear 65 18.3 62 16.5 89 89 W 7 11 29.83 1010 10 16.0934 0 0

Powered by AerisWeather